Regional Weather Roundup
Issued by NWS

Home | Current Version | Previous Version | Text Only | Print | Product List | Glossary Off
Versions: 1 2 3 4 5 6 7 8 9 10 11 12 13 14 15 16 17 18 19 20 21 22 23 24 25 26 27 28 29 30 31 32 33 34 35 36 37 38 39 40 41 42 43 44 45 46 47 48 49 50

000
ASUS45 KCYS 272110
RWRWY

WYOMING REGIONAL WEATHER ROUNDUP
NATIONAL WEATHER SERVICE CHEYENNE WY
300 PM MDT FRI MAR 27 2015

NOTE:  "FAIR" INDICATES FEW OR NO CLOUDS BELOW 12,000 FEET
WITH NO SIGNIFICANT WEATHER AND/OR OBSTRUCTIONS TO VISIBILITY.

WYZ001-272200-
YELLOWSTONE NATIONAL PARK

CITY           SKY/WX    TMP DP  RH WIND       PRES   REMARKS
LK YELLOWSTONE   N/A     53  27  36 VRB6      30.28F
W YELLOWSTONE  NOT AVBL

$$
WYZ002>013-054>058-071-098>099-272200-
NORTHERN WYOMING

CITY           SKY/WX    TMP DP  RH WIND       PRES   REMARKS
JACKSON        SUNNY     54  37  54 CALM      30.25F
CODY           FAIR      68  27  21 W12G18    30.08F
GREYBULL       FAIR      70  29  21 CALM      30.03F
WORLAND        FAIR      69  31  24 E3        30.05F
SHERIDAN       FAIR      68  30  24 N24G32    30.00F
BUFFALO        NOT AVBL
GILLETTE       FAIR      67  32  27 NW24G35   30.00F
HULETT         MOCLDY    63  34  34 NW9G22    30.01F
NEWCASTLE      FAIR      64  32  29 NW20G31   30.00F

$$
WYZ014>020-022>026-101>103-272200-
CENTRAL WYOMING

CITY           SKY/WX    TMP DP  RH WIND       PRES   REMARKS
BIG PINEY      FAIR      65  25  22 N16G24    30.25F
PINEDALE       FAIR      57  28  33 NW21G26   30.27F
DUBOIS         FAIR      59  25  27 N16G24    30.22F
LANDER         FAIR      69  25  19 NW6       30.09F
RIVERTON       FAIR      69  27  20 NW10      30.11F
CASPER         FAIR      68  26  20 NW18G33   30.09F
DOUGLAS        FAIR      70  28  21 NW25G35   30.04F

$$
WYZ021-027>030-104>119-272200-
SOUTHERN WYOMING

CITY           SKY/WX    TMP DP  RH WIND       PRES   REMARKS
EVANSTON       FAIR      63  30  28 W9G17     30.29F
KEMMERER       FAIR      59  30  33 W20       30.30S
FORT BRIDGER   FAIR      66  28  24 W16G23    30.30F
ROCK SPRINGS   FAIR      65  25  22 W21G26    30.23F
DIXON          FAIR      64  28  25 NW7G17    30.24F
RAWLINS        FAIR      64  23  21 W18G35    30.19F
SARATOGA       FAIR      61  25  25 NW16G25   30.22F
LARAMIE        FAIR      60  24  25 NW26G40   30.17F
CHEYENNE       FAIR      63  26  24 NW30G40   30.10F
TORRINGTON     FAIR      69  30  23 NW21      29.99F
PINE BLUFFS    FAIR      66  30  26 NW26G33   30.07F

$$



USA.gov is the U.S. government's official web portal to all federal, state and local government web resources and services.